Погода Чёрный Яр

Погода Чёрный Яр : погода сейчас, прогноз погоды и архив. Всё, что Вы хотите узнать о погоде Чёрный Яр!

Поиск расширенной информации на нашем сайте:

Другие новости

Новости СМИ2

Главная страница сайта

Новости сайта

03.07.2017

Напоминаем, что на нашем специализированном сайте Метеоцентр.Азия вы можете получить высокодетализированные автоматические прогнозы погоды по пунктам России, СНГ и мира в авиационном формате (включающие направление и скорость ветра, видимость, явления погоды, количество и форму облачности, нижнюю и верхнюю границу облачности).


Погода Чёрный Яр - сегодня

Время (UTC), дата Ветер
(°,м/с) 
Видим.   Явления Облачность Т
(°С)
Тd
(°С)
f(%) Тe
(°С)
Pmin
(гПа)
dP
(гПа)
Po
(мм)
O2
(г/м3)
Тmin Tmax R s Состояние
почвы
12 20.10.17 350 (С) 10 км    10/0 средняя, верхняя 
[Ac cuf|Ci fib]
+15.7 +8.4 62 +16  1017.6  763  289           
15 20.10.17 350 (С) 10 км    10/0 средняя 
[Ac cuf]
+13.2 +6.1 62 +14  1018.1  0.5  763  292    +15.8       
18 20.10.17 030 (СВ) 10 км    10/4 600 м кучево-дожд., средняя 
[Cb cap|Ac cuf]
+10.9 +3.5 60 +11  1019.1  1.1  764  295           
21 20.10.17 050 (СВ) 10 км  слаб. ливневой дождь  10/10 600 м кучево-дожд. 
[Cb calv]
+7.6 +5.6 87 +7  1019.1  -0.1  764  299           
00 21.10.17 060 (СВ) 10 км  {ливн. осадки}  10/10 600 м 
[Sc diur, vesp]
+7.5 +4.1 79 +7  1018.9  -0.2  764  299           
03 21.10.17 030 (СВ) 10 км    10/10 600 м 
[Sc diur, vesp]
+7.2 +3.6 78 +7  1019  0.1  764  299  +7      замёрзшая 
06 21.10.17 060 (СВ) 4000 м  слаб. ливневой дождь  10/10 600 м кучево-дожд. 
[Cb calv]
+6.1 +4.4 89 +6  1019.2  0.2  764  300  +5.9         
09 21.10.17 050 (СВ) 10 км  в посл. час ливневой дождь  10/3 600 м кучево-дожд., средняя 
[Cb calv|Ac cuf]
+7.4 +4.3 81 +7  1018.5  -0.6  763  299           
12 21.10.17 060 (СВ) 10 км  {ливн. осадки}  10/10 600 м 
[Sc diur, vesp]
+7.8 +3.7 75 +9  1017.5  -1.1  763  298           
15 21.10.17 040 (СВ) 10 км    10/0 средняя 
[As op]
+7.7 +3 72 +8  1017.2  -0.3  762  298    +7.8  0.8     
18 21.10.17 030 (СВ) 10 км    10/0 средняя 
[Ac As]
+7.4 +3.8 78 +7  1016.7  -0.5  762  298           
21 21.10.17 100 (В) 10 км    10/0 средняя 
[Ac As]
+7.3 +3.9 79 +8  1016  -0.7  761  298           
00 22.10.17 050 (СВ) 10 км    10/0 средняя 
[Ac As]
+6.7 +3.1 78 +7  1015  -1  761  299           
03 22.10.17 070 (В) 10 км    10/0 средняя 
[As op]
+6.2 +2.3 76 +5  1013.8  -1.2  760  299  +6.2         
06 22.10.17 050 (СВ) 10 км  в посл. час дождь  10/4 300 м средняя 
[Frnb|As op]
+5.7 +3.3 85 +5  1013.3  -0.5  759  299  +5.6         
09 22.10.17 040 (СВ) 4000 м  слаб. дождь  10/6 300 м средняя 
[Frnb|As op]
+5 +4.4 96 +3  1011.7  -1.6  758  299           
12 22.10.17 030 (СВ) 5{10}  4000 м  дождь  10/8 300 м средняя 
[Frnb|As op]
+4 +3.5 97 +2  1011.3  -0.3  758  300           
15 22.10.17 030 (СВ) 4000 м  слаб. дождь  10/8 300 м средняя 
[Frnb|As op]
+3.2 +2.8 97 +1  1012.2  0.8  759  302    +6.2     
18 22.10.17 020 (С) 4000 м  дымка{дождь}  10/10 200 м 
[St]
+3.3 +2.7 96 +1  1012.7  0.5  759  302           
21 22.10.17 360 (С) 4000 м  дымка  10/4 300 м средняя 
[St|Ac cast]
+3.1 +2.3 94 +1  1014.1  1.4  760  302           
00 23.10.17 330 (СЗ) 4000 м  дымка  10/0 средняя 
[Ac cast]
+2.9 +1.6 91 +2  1016  762  303           
03 23.10.17 330 (СЗ) 4000 м  дымка  10/10 200 м 
[St]
+1.1 +1.1 100 1018.3  2.2  763  306  +1.1    0.3     
06 23.10.17 250 (З) 4000 м  в посл. час туман  10/10 300 м 
[St]
+1.3 +1 98 +1  1020.9  2.6  765  307  +0.3         
09 23.10.17 290 (З) 10 км    10/3 600 м кучево-дожд., средняя 
[Cb calv|Ac cuf]
+5.4 +2.7 83 +4  1021.9  766  302           
12 23.10.17 300 (СЗ) 10 км    10/0 средняя 
[Ac trans]
+6 +0 65 +6  1022.4  0.6  766  302           
Время (UTC), дата Ветер
(°,м/с) 
Видим.   Явления Облачность Т
(°С)
Тd
(°С)
f(%) Тe
(°С)
Pmin
(гПа)
dP
(гПа)
Po
(мм)
O2
(г/м3)
Тmin Tmax R s Состояние
почвы

Для получения пояснительной информации подведите курсор к названию столбца.

ПОГОДА Чёрный Яр - архив

Всё, что Вы хотите узнать о погоде Чёрный Яр - удобно и подробно!

Выберите нужную дату (начиная с 1 января 2015* года) и нажмите кнопку "Найти".
Будут отображены архивные сводки погоды по пункту Чёрный Яр, начиная с указанной даты.


Отображать данные в формате CSV (для использования в таблицах Excel)


Внимание! Наш архив погоды предназначен исключительно для личного некоммерческого использования в познавательных целях. Если Вам необходимы официальные справки о состоянии погоды (для производственных, юридических, коммерческих и т.п. целей), обращайтесь в органы Росгидромета.

*Примечание: данная дата относится к архиву по метеостанциям СССР (Россия, СНГ, Балтия).
Архив по метеостанциям Зарубежной Европы и Азии (кроме Китая) хранится 10 дней, по другим регионам земного шара (Китай, Африка, Америка, Австралия, Океания) - 1 день.

Чёрный Яр - район местоположения метеостанции


Название, широта, долгота, высота метеостанции:
Чёрный Яр 48.1°ш. 46.1°д. 5 м над ур. моря [Российская Федерация]

Дополнительная информация

В oтличие oт бoльшинства пoгoдных сайтoв мы публикуем пoдрoбную метеoинфoрмацию в детальнoм прoфессиoнальнoм фoрмате.

Характеристики температуры и влажнoсти вoздуха измеряются на высoте 2 м в тени вдали oт зданий и деревьев.
Скoрoсть ветра измеряется на высoте 10 м (на урoвне рoста челoвека скoрoсть ветра ниже в 1.5-2 раза). Если метеoстанция нахoдится в гoрoде или в лесу, тo скoрoсть ветра занижена на 2-4 м/с пo сравнению с oткрытым местoм. Скoрoсть ветра над акватoриями крупных рек и oзёр, а также на вершинах хoлмoв на 2-5 м/с выше, чем в oбычных услoвиях.
Атмoсфернoе давление в разных тoчках местнoсти мoжет значительнo oтличаться oт давления на метеoстанции, в зависимoсти oт услoвий рельефа (при пoдъёме на 10 м давление пoнижается примернo на 1 мм рт.ст.).